Time,TemperatureF,DewpointF,PressureIn,WindDirection,WindDirectionDegrees,WindSpeedMPH,WindSpeedGustMPH,Humidity,HourlyPrecipIn,Conditions,Clouds,dailyrainin,SolarRadiationWatts/m^2,SoftwareType,DateUTC
2013-03-13 00:12:00,67.0,33.0,-100.00,East,91,14.0,18.0,28,-99.99,,,0.00,0.000000,,2013-03-13 07:12:00,
2013-03-13 00:22:00,67.0,33.0,-100.00,East,91,14.0,18.0,28,-99.99,,,0.00,0.000000,,2013-03-13 07:22:00,
2013-03-13 01:12:00,67.0,31.0,-100.00,East,98,14.0,19.0,26,-99.99,,,0.00,0.000000,,2013-03-13 08:12:00,
2013-03-13 01:22:00,67.0,31.0,-100.00,East,98,14.0,19.0,26,-99.99,,,0.00,0.000000,,2013-03-13 08:22:00,
2013-03-13 02:12:00,65.0,34.0,-100.00,East,92,14.0,19.0,31,-99.99,,,0.00,0.000000,,2013-03-13 09:12:00,
2013-03-13 02:22:00,65.0,34.0,-100.00,East,92,14.0,19.0,31,-99.99,,,0.00,0.000000,,2013-03-13 09:22:00,
2013-03-13 03:11:00,66.0,30.0,-100.00,East,90,15.0,21.0,26,-99.99,,,-99.99,0.000000,,2013-03-13 10:11:00,
2013-03-13 03:22:00,66.0,30.0,-100.00,East,90,15.0,21.0,26,-99.99,,,-99.99,0.000000,,2013-03-13 10:22:00,
2013-03-13 04:12:00,57.0,31.0,-100.00,ENE,76,10.0,19.0,37,-99.99,,,0.00,0.000000,,2013-03-13 11:12:00,
2013-03-13 04:22:00,57.0,31.0,-100.00,ENE,76,10.0,19.0,37,-99.99,,,0.00,0.000000,,2013-03-13 11:22:00,
2013-03-13 04:32:00,57.0,31.0,-100.00,ENE,76,10.0,19.0,37,-99.99,,,0.00,0.000000,,2013-03-13 11:32:00,
2013-03-13 04:42:00,57.0,31.0,-100.00,ENE,76,10.0,19.0,37,-99.99,,,0.00,0.000000,,2013-03-13 11:42:00,
2013-03-13 05:12:00,60.0,26.0,-100.00,East,85,13.0,19.0,27,0.00,,,0.00,0.000000,,2013-03-13 12:12:00,
2013-03-13 05:22:00,60.0,26.0,-100.00,East,85,13.0,19.0,27,0.00,,,0.00,0.000000,,2013-03-13 12:22:00,
2013-03-13 05:32:00,60.0,26.0,-100.00,East,85,13.0,19.0,27,0.00,,,0.00,0.000000,,2013-03-13 12:32:00,
2013-03-13 06:11:00,66.0,24.0,-100.00,East,92,15.0,20.0,20,-99.99,,,0.00,0.000000,,2013-03-13 13:11:00,
2013-03-13 06:22:00,66.0,24.0,-100.00,East,92,15.0,20.0,20,-99.99,,,0.00,0.000000,,2013-03-13 13:22:00,
2013-03-13 07:12:00,68.0,22.0,-100.00,East,89,20.0,25.0,17,-99.99,,,0.00,1.000000,,2013-03-13 14:12:00,
2013-03-13 07:21:00,68.0,22.0,-100.00,East,89,20.0,25.0,17,-99.99,,,0.00,1.000000,,2013-03-13 14:21:00,
2013-03-13 08:12:00,68.0,20.0,-100.00,East,90,23.0,29.0,16,-99.99,,,0.00,22.000000,,2013-03-13 15:12:00,
2013-03-13 09:12:00,69.0,22.0,-100.00,East,89,22.0,29.0,17,-99.99,,,0.00,211.000000,,2013-03-13 16:12:00,
2013-03-13 09:22:00,69.0,22.0,-100.00,East,89,22.0,29.0,17,-99.99,,,0.00,211.000000,,2013-03-13 16:22:00,
2013-03-13 10:12:00,72.0,25.0,-100.00,ENE,76,21.0,30.0,17,0.00,,,0.00,422.000000,,2013-03-13 17:12:00,
2013-03-13 10:22:00,72.0,25.0,-100.00,ENE,76,21.0,30.0,17,0.00,,,0.00,422.000000,,2013-03-13 17:22:00,
2013-03-13 10:32:00,72.0,25.0,-100.00,ENE,76,21.0,30.0,17,0.00,,,0.00,422.000000,,2013-03-13 17:32:00,
2013-03-13 11:12:00,77.0,26.0,-100.00,ENE,77,18.0,27.0,15,0.00,,,0.00,606.000000,,2013-03-13 18:12:00,
2013-03-13 11:22:00,77.0,26.0,-100.00,ENE,77,18.0,27.0,15,0.00,,,0.00,606.000000,,2013-03-13 18:22:00,
2013-03-13 11:32:00,77.0,26.0,-100.00,ENE,77,18.0,27.0,15,0.00,,,0.00,606.000000,,2013-03-13 18:32:00,
2013-03-13 12:12:00,80.0,27.0,-100.00,ENE,63,15.0,24.0,14,0.00,,,0.00,745.000000,,2013-03-13 19:12:00,
2013-03-13 12:22:00,80.0,27.0,-100.00,ENE,63,15.0,24.0,14,0.00,,,0.00,745.000000,,2013-03-13 19:22:00,
2013-03-13 12:32:00,80.0,27.0,-100.00,ENE,63,15.0,24.0,14,0.00,,,0.00,745.000000,,2013-03-13 19:32:00,
2013-03-13 12:42:00,80.0,27.0,-100.00,ENE,63,15.0,24.0,14,0.00,,,0.00,745.000000,,2013-03-13 19:42:00,
2013-03-13 13:02:00,82.0,26.0,-100.00,ENE,66,11.0,19.0,13,0.00,,,0.00,828.000000,,2013-03-13 20:02:00,
2013-03-13 13:12:00,82.0,26.0,-100.00,ENE,66,11.0,19.0,13,0.00,,,0.00,828.000000,,2013-03-13 20:12:00,
2013-03-13 13:22:00,82.0,26.0,-100.00,ENE,66,11.0,19.0,13,0.00,,,0.00,828.000000,,2013-03-13 20:22:00,
2013-03-13 13:32:00,82.0,26.0,-100.00,ENE,66,11.0,19.0,13,0.00,,,0.00,828.000000,,2013-03-13 20:32:00,
2013-03-13 13:41:00,82.0,26.0,-100.00,ENE,66,11.0,19.0,13,0.00,,,0.00,828.000000,,2013-03-13 20:41:00,
2013-03-13 14:12:00,84.0,26.0,-100.00,NNE,31,5.0,14.0,12,0.00,,,0.00,845.000000,,2013-03-13 21:12:00,
2013-03-13 14:22:00,84.0,26.0,-100.00,NNE,31,5.0,14.0,12,0.00,,,0.00,845.000000,,2013-03-13 21:22:00,
2013-03-13 14:32:00,84.0,26.0,-100.00,NNE,31,5.0,14.0,12,0.00,,,0.00,845.000000,,2013-03-13 21:32:00,
2013-03-13 14:41:00,84.0,26.0,-100.00,NNE,31,5.0,14.0,12,0.00,,,0.00,845.000000,,2013-03-13 21:41:00,
2013-03-13 15:12:00,80.0,41.0,-100.00,West,271,12.0,16.0,25,0.00,,,0.00,794.000000,,2013-03-13 22:12:00,
2013-03-13 15:22:00,80.0,41.0,-100.00,West,271,12.0,16.0,25,0.00,,,0.00,794.000000,,2013-03-13 22:22:00,
2013-03-13 15:32:00,80.0,41.0,-100.00,West,271,12.0,16.0,25,0.00,,,0.00,794.000000,,2013-03-13 22:32:00,
2013-03-13 15:42:00,80.0,41.0,-100.00,West,271,12.0,16.0,25,0.00,,,0.00,794.000000,,2013-03-13 22:42:00,
2013-03-13 16:12:00,79.0,40.0,-100.00,West,273,15.0,17.0,25,0.00,,,0.00,681.000000,,2013-03-13 23:12:00,
2013-03-13 16:22:00,79.0,40.0,-100.00,West,273,15.0,17.0,25,0.00,,,0.00,681.000000,,2013-03-13 23:22:00,
2013-03-13 16:32:00,79.0,40.0,-100.00,West,273,15.0,17.0,25,0.00,,,0.00,681.000000,,2013-03-13 23:32:00,
2013-03-13 16:42:00,79.0,40.0,-100.00,West,273,15.0,17.0,25,0.00,,,0.00,681.000000,,2013-03-13 23:42:00,
2013-03-13 17:12:00,80.0,33.0,-100.00,WSW,254,11.0,17.0,18,0.00,,,0.00,523.000000,,2013-03-14 00:12:00,
2013-03-13 17:22:00,80.0,33.0,-100.00,WSW,254,11.0,17.0,18,0.00,,,0.00,523.000000,,2013-03-14 00:22:00,
2013-03-13 17:32:00,80.0,33.0,-100.00,WSW,254,11.0,17.0,18,0.00,,,0.00,523.000000,,2013-03-14 00:32:00,
2013-03-13 17:42:00,80.0,33.0,-100.00,WSW,254,11.0,17.0,18,0.00,,,0.00,523.000000,,2013-03-14 00:42:00,
2013-03-13 18:12:00,77.0,33.0,-100.00,WSW,252,14.0,16.0,20,0.00,,,0.00,327.000000,,2013-03-14 01:12:00,
2013-03-13 18:22:00,77.0,33.0,-100.00,WSW,252,14.0,16.0,20,0.00,,,0.00,327.000000,,2013-03-14 01:22:00,
2013-03-13 18:32:00,77.0,33.0,-100.00,WSW,252,14.0,16.0,20,0.00,,,0.00,327.000000,,2013-03-14 01:32:00,
2013-03-13 18:42:00,77.0,33.0,-100.00,WSW,252,14.0,16.0,20,0.00,,,0.00,327.000000,,2013-03-14 01:42:00,
2013-03-13 19:12:00,75.0,29.0,-100.00,WSW,238,11.0,16.0,18,0.00,,,0.00,118.000000,,2013-03-14 02:12:00,
2013-03-13 19:22:00,75.0,29.0,-100.00,WSW,238,11.0,16.0,18,0.00,,,0.00,118.000000,,2013-03-14 02:22:00,
2013-03-13 19:32:00,75.0,29.0,-100.00,WSW,238,11.0,16.0,18,0.00,,,0.00,118.000000,,2013-03-14 02:32:00,
2013-03-13 19:42:00,75.0,29.0,-100.00,WSW,238,11.0,16.0,18,0.00,,,0.00,118.000000,,2013-03-14 02:42:00,
2013-03-13 20:12:00,74.0,25.0,-100.00,WSW,245,8.0,14.0,16,0.00,,,0.00,4.000000,,2013-03-14 03:12:00,
2013-03-13 20:22:00,74.0,25.0,-100.00,WSW,245,8.0,14.0,16,0.00,,,0.00,4.000000,,2013-03-14 03:22:00,
2013-03-13 21:12:00,73.0,26.0,-100.00,South,175,2.0,9.0,17,0.00,,,0.00,0.000000,,2013-03-14 04:12:00,
2013-03-13 21:22:00,73.0,26.0,-100.00,South,175,2.0,9.0,17,0.00,,,0.00,0.000000,,2013-03-14 04:22:00,
2013-03-13 22:12:00,71.0,29.0,-100.00,ENE,66,0.0,3.0,21,0.00,,,0.00,0.000000,,2013-03-14 05:12:00,
2013-03-13 22:22:00,71.0,29.0,-100.00,ENE,66,0.0,3.0,21,0.00,,,0.00,0.000000,,2013-03-14 05:22:00,
2013-03-13 23:12:00,71.0,27.0,-100.00,ESE,107,7.0,8.0,19,-99.99,,,0.00,1.000000,,2013-03-14 06:12:00,
2013-03-13 23:22:00,71.0,27.0,-100.00,ESE,107,7.0,8.0,19,-99.99,,,0.00,1.000000,,2013-03-14 06:22:00,